Location: Unspecified
(29.9680°N, 0.0000°E)
Time: 16:39:16
(UTC+00:00)

SR - Visible Passes

Search period start: 17 June 2019 00:00
Search period end: 27 June 2019 00:00
Orbit: 582 x 874 km, 66.7° (Epoch: 16 June)

Date Brightness Start Highest point End Pass type
(mag) Time Alt. Az. Time Alt. Az. Time Alt. Az.
17 Jun ? 03:50:06 10° S 03:54:08 41° ESE 03:58:07 10° NE visible
18 Jun ? 03:02:08 10° SE 03:04:45 16° ESE 03:07:19 10° ENE visible
19 Jun ? 03:53:32 17° SSW 03:56:47 79° WNW 04:01:02 10° NNE visible
20 Jun ? 03:05:36 26° SSE 03:07:16 37° ESE 03:11:11 10° NE visible
21 Jun ? 02:17:36 14° ESE 02:17:54 14° ESE 02:20:13 10° ENE visible
21 Jun ? 03:57:02 18° WSW 03:59:33 32° WNW 04:03:23 10° N visible
22 Jun ? 03:08:59 54° SSW 03:09:55 86° WNW 03:14:10 10° NNE visible
23 Jun ? 02:20:53 33° E 02:20:53 33° E 02:24:15 10° NE visible
23 Jun ? 04:00:18 11° W 04:02:29 15° NW 04:04:58 10° NNW visible
24 Jun ? 01:32:43 11° E 01:32:43 11° E 01:33:04 10° ENE visible
24 Jun ? 03:12:08 34° WNW 03:12:40 35° WNW 03:16:35 10° N visible
25 Jun ? 02:23:56 55° NNE 02:23:56 55° NNE 02:27:17 10° NNE visible
26 Jun ? 01:35:41 20° ENE 01:35:41 20° ENE 01:37:19 10° NE visible
26 Jun ? 03:15:06 16° WNW 03:15:35 16° NW 03:18:17 10° NNW visible
